This demonstration page uses our WeatherBlox Daily Observations layout. Learn more.

Left ArrowRight Arrow

31.31129, -92.44514

Hourly Observations for December 6, 2019

Temp ( °F °C ) Dew Point ( °F °C ) Humidity (%) Winds ( mph kmh ) Pressure ( in mb ) Visibility ( mi km ) Precip ( " mm )
12:34 am 00:34 Mostly Cloudy 58 14.4 52 11.1 81 81 SSE 8 13 30.03 1017 10 16 0.00 0.00
12:53 am 00:53 Cloudy 58 14.4 52 11.1 81 81 SSE 9 15 30.03 1017 10 16 0.00 0.00
1:53 am 01:53 Cloudy 59 15 52 11.1 78 78 SE 10 17 30.03 1017 10 16 0.00 0.00
2:53 am 02:53 Mostly Cloudy 56 13.3 52 11.1 87 87 SE 8 13 30.02 1017 10 16 0.00 0.00
3:42 am 03:42 Partly Cloudy 56 13.3 52 11.1 87 87 SE 7 11 30.01 1016 10 16 0.00 0.00
3:53 am 03:53 Mostly Clear 55 12.8 52 11.1 90 90 SE 7 11 30.01 1016 10 16 0.00 0.00
4:53 am 04:53 Cloudy 57 13.9 53 11.7 87 87 SE 5 7 30.02 1017 10 16 0.00 0.00
5:23 am 05:23 Cloudy 57 13.9 54 12.2 90 90 SE 6 9 30.02 1017 10 16 0.00 0.00
5:53 am 05:53 Cloudy 57 13.9 54 12.2 90 90 SE 7 11 30.02 1017 10 16 0.00 0.00
6:02 am 06:02 Cloudy 57 13.9 54 12.2 90 90 SE 7 11 30.01 1016 10 16 0.00 0.00
6:30 am 06:30 Partly Cloudy 56 13.3 54 12.2 93 93 SSE 8 13 30.00 1016 9 14 0.00 0.00
6:53 am 06:53 Mostly Cloudy 56 13.3 54 12.2 93 93 ESE 7 11 30.02 1017 8 13 0.00 0.00
7:53 am 07:53 Cloudy 61 16.1 58 14.4 90 90 SSW 5 7 30.03 1017 7 11 0.00 0.00
8:53 am 08:53 Cloudy with Mist and Fog 63 17.2 61 16.1 93 93 SW 7 11 30.04 1017 6 10 0.00 0.00
9:44 am 09:44 Cloudy with Mist and Fog 63 17.2 61 16.1 93 93 W 3 6 30.06 1018 3 4 0.00 0.00
9:53 am 09:53 Cloudy with Mist and Fog 63 17.2 61 16.1 93 93 Calm 30.07 1018 3 4 0.00 0.00
10:00 am 10:00 Cloudy with Mist and Fog 63 17.2 61 16.1 93 93 Calm 30.06 1018 4 6 0.00 0.00
10:07 am 10:07 Cloudy with Mist and Fog 63 17.2 61 16.1 93 93 Calm 30.07 1018 4 6 0.00 0.00
10:53 am 10:53 Hazy 67 19.4 62 16.7 84 84 Calm 30.08 1019 6 10 0.00 0.00
11:35 am 11:35 Mostly Cloudy 70 21.1 61 16.1 73 73 NW 7 11 30.05 1018 10 16 0.00 0.00
11:53 am 11:53 Mostly Cloudy 72 22.2 60 15.6 66 66 NW 6 9 30.05 1018 10 16 0.00 0.00
12:00 pm 12:00 Partly Cloudy 72 22.2 60 15.6 66 66 W 6 9 30.04 1017 10 16 0.00 0.00
12:53 pm 12:53 Mostly Cloudy 75 23.9 58 14.4 55 55 WNW 8 13 30.04 1017 10 16 0.00 0.00
1:53 pm 13:53 Mostly Cloudy 76 24.4 57 13.9 52 52 NNW 12 19 30.03 1017 10 16 0.00 0.00
2:53 pm 14:53 Sunny 75 23.9 56 13.3 52 52 NW 8 13 30.04 1017 10 16 0.00 0.00
3:53 pm 15:53 Partly Cloudy 72 22.2 55 12.8 55 55 NNW 8 13 30.06 1018 10 16 0.00 0.00
4:53 pm 16:53 Cloudy 70 21.1 56 13.3 61 61 NW 7 11 30.08 1019 10 16 0.00 0.00
5:53 pm 17:53 Cloudy 65 18.3 55 12.8 70 70 NW 5 7 30.10 1019 10 16 0.00 0.00
6:53 pm 18:53 Partly Cloudy 63 17.2 56 13.3 78 78 NNW 6 9 30.12 1020 10 16 0.00 0.00
7:53 pm 19:53 Clear 63 17.2 57 13.9 81 81 NNE 7 11 30.15 1021 10 16 0.00 0.00
8:53 pm 20:53 Clear 62 16.7 54 12.2 75 75 NNE 10 17 30.17 1022 10 16 0.00 0.00
9:53 pm 21:53 Mostly Clear 60 15.6 53 11.7 78 78 NNE 7 11 30.19 1022 10 16 0.00 0.00
10:53 pm 22:53 Clear 58 14.4 52 11.1 81 81 NNE 10 17 30.21 1023 10 16 0.00 0.00
11:53 pm 23:53 Clear 57 13.9 51 10.6 81 81 NNE 6 9 30.22 1023 10 16 0.00 0.00

Powered by AerisWeather